Miscellaneous Local Product
Issued by NWS North Platte, NE

Home | Current Version | Previous Version | Text Only | Print | Product List | Glossary On
Versions: 1 2 3 4 5 6 7 8 9 10 11 12 13 14 15 16 17 18 19 20 21 22 23 24 25 26 27 28 29 30 31 32 33 34 35 36 37 38 39 40 41 42 43 44 45 46 47 48 49 50
000
AXUS43 KLBF 271110
MISLBF


WESTERN AND NORTH CENTRAL NEBRASKA HOURLY WEATHER ROUNDUP
NATIONAL WEATHER SERVICE NORTH PLATTE NE
600 AM CDT WED MAY 27 2015

***STATIONS NOT REPORTING VARIABLES SUCH AS SKY/WEATHER OR
PRESSURE ARE PROVIDED BY THE NEBRASKA DEPARTMENT OF
ROADS...RAWS...AND APRS NETWORKS...AND ARE NOT UNDER
NATIONAL WEATHER SERVICE QUALITY CONTROL***

...OBSERVATIONS IN AND NEAR THE EASTERN PANHANDLE OF NEBRASKA...

CITY           SKY/WX    TMP DP  RH WIND       PRES   REMARKS
PINE RIDGE     CLOUDY    57  49  74 SE6       30.03R
CHADRON        CLOUDY    57  52  83 S9        30.01S
ALLIANCE       CLOUDY    53  50  89 SE6       30.03F
SIDNEY         PTCLDY    52  49  89 SE12      30.05S
WHITECLAY        N/A     53  49  87 SE8         N/A
BIG SPRINGS      N/A     57  51  81 SW3         N/A
$$

...OBSERVATIONS IN NORTH CENTRAL NEBRASKA...

CITY           SKY/WX    TMP DP  RH WIND       PRES   REMARKS
VALENTINE      PTCLDY    45  43  93 W5        30.03S
THEDFORD       CLEAR     50  46  85 CALM      30.05S
AINSWORTH      CLEAR     52  47  82 SW9       30.04R
O`NEILL        CLEAR     50  47  90 SW6       30.03R
ORD            CLEAR     46  43  89 CALM      30.03R
BROKEN BOW     CLEAR     48  45  89 CALM      30.06R
BROWNLEE         N/A     56  46  70 S5          N/A
VALENTINE NWR    N/A     50  45  81 SW6         N/A
SPRINGVIEW       N/A     44  43  95 CALM        N/A
HALSEY           N/A     52  45  78 CALM        N/A
BREWSTER         N/A     46  44  93 CALM        N/A
ROSE             N/A     51  48  87 S5          N/A
NEWPORT          N/A     47  46  93 SW7         N/A
SARGENT          N/A     46  45  96 CALM        N/A
COMSTOCK         N/A     53  49  87 W5          N/A
EWING            N/A     50  48  93 SW3         N/A
$$

...OBSERVATIONS IN SOUTHWEST NEBRASKA AND FAR NORTHEAST COLORADO...

CITY           SKY/WX    TMP DP  RH WIND       PRES   REMARKS
WRAY           FAIR      52  52 100 E6        30.05S
HOLYOKE        FAIR      54  50  87 SE8       30.05S
IMPERIAL       MOCLDY    51  48  89 S3        30.07R
OGALLALA       LGT RAIN  55  51  85 W5        30.07R
NORTH PLATTE   PTCLDY    47  45  93 E5        30.06R
MCCOOK         CLOUDY    54  49  83 SW8       30.08R
LEXINGTON      CLEAR     47  46  95 NE5       30.06S FOG
PAXTON           N/A     55  51  87 S7          N/A
GOTHENBURG       N/A     49  44  82 N3          N/A
CALLAWAY         N/A     50  47  88 S3          N/A
$$

...NORTH PLATTE AREA...

CITY           SKY/WX    TMP DP  RH WIND       PRES   REMARKS
AIRPORT        PTCLDY    47  45  93 E5        30.06R
DOWNTOWN         N/A     50  46  87 CALM        N/A
$$

...SOME WEATHER OBSERVATIONS FROM AROUND THE REGION...

CITY           SKY/WX    TMP DP  RH WIND       PRES   REMARKS
DENVER         MOCLDY    50  44  80 SW13      30.06S
LARAMIE        CLOUDY    45  40  82 W5        30.12F
CHEYENNE       CLOUDY    50  46  86 CALM      30.08F
SCOTTSBLUFF    MOCLDY    54  50  86 CALM      30.03R
RAPID CITY     MOCLDY    49  47  93 SE5       29.98R
PIERRE         CLEAR     49  46  90 SW3       29.96R
WINNER         FAIR      58  45  62 SW8       30.00R
SIOUX FALLS    PTCLDY    52  48  86 CALM      29.96R
OMAHA          PTCLDY    54  52  93 CALM      30.00S
GRAND ISLAND   CLEAR     50  46  86 W5        30.05R
KANSAS CITY    PTCLDY    56  54  93 SW7       30.03R
WICHITA        PTCLDY    61  59  93 N6        30.04R
HAYS           MOCLDY    54  45  71 CALM      30.07R
LIBERAL        CLOUDY    61  55  82 SE6       30.07S
GOODLAND       CLOUDY    53  51  93 SE10      30.06S
$$



USA.gov is the U.S. government's official web portal to all federal, state and local government web resources and services.